Miscellaneous Local Product
Issued by NWS Hastings, NE

Home | Current Version | Previous Version | Graphics & Text | Print | Product List | Glossary On
Versions: 1 2 3 4 5 6 7 8 9 10 11 12 13 14 15 16 17 18 19 20 21 22 23 24 25 26 27 28 29 30 31 32 33 34 35 36 37 38 39 40 41 42 43 44 45 46 47 48 49 50
000
AXUS43 KGID 201902
MISGRI

GID CWA HOURLY WEATHER ROUNDUP
NATIONAL WEATHER SERVICE HASTINGS NE
200 PM CDT MON OCT 20 2014

NOTE: "FAIR" INDICATES FEW OR NO CLOUDS BELOW 12,000 FEET WITH NO
SIGNIFICANT WEATHER AND/OR OBSTRUCTIONS TO VISIBILITY.

...SOUTH CENTRAL NEBRASKA...

CITY           SKY/WX    TMP DP  RH WIND       PRES   REMARKS
GRAND ISLAND   SUNNY     70  40  33 E5        30.10F
HASTINGS       SUNNY     72  40  31 E8        30.10F
KEARNEY        SUNNY     72  43  35 E6        30.11F
ORD            SUNNY     70  41  34 E6        30.09F
YORK           SUNNY     68  41  37 CALM      30.10F
AURORA         SUNNY     71  36  28 SE5       30.09F HAZE
LEXINGTON      SUNNY     74  41  29 S6        30.11F
HOLDREGE       SUNNY     72  39  30 CALM      30.10F
HEBRON         SUNNY     73  38  28 E5        30.08F

...NEBRASKA PANHANDLE...

CITY           SKY/WX    TMP DP  RH WIND       PRES   REMARKS
CHADRON        SUNNY     78  43  28 S18       30.00F
ALLIANCE       SUNNY     74  38  27 S21G28    30.07F
SCOTTSBLUFF    SUNNY     78  48  34 S12       30.05F
SIDNEY         SUNNY     73  37  27 S16       30.11F

...WESTERN AND NORTH CENTRAL NEBRASKA...

CITY           SKY/WX    TMP DP  RH WIND       PRES   REMARKS
VALENTINE      SUNNY     75  38  26 S13       30.06F
AINSWORTH      SUNNY     72  39  29 S8        30.08F
ONEILL         SUNNY     69  40  34 CALM      30.10F
BROKEN BOW     SUNNY     73  44  35 SE8       30.10F
IMPERIAL       SUNNY     74  38  27 S13       30.11F
NORTH PLATTE   SUNNY     75  42  30 SW10      30.10F
MCCOOK         SUNNY     76  43  30 VRB5      30.11F

...EASTERN NEBRASKA...

CITY           SKY/WX    TMP DP  RH WIND       PRES   REMARKS
NORFOLK        SUNNY     69  37  30 CALM      30.08F
SO SIOUX CITY  SUNNY     70  41  34 N9        30.07F
TEKAMAH        SUNNY     72  38  29 W9        30.06F
COLUMBUS       SUNNY     70  37  30 N5        30.10F
ALBION         SUNNY     69  37  30 CALM      30.09F
OMAHA EPPLEY   SUNNY     70  37  29 VRB7      30.07F
OFFUTT AFB     SUNNY     71  41  34 N3        30.07F
MILLARD        SUNNY     70  42  36 W3        30.07F
LINCOLN        SUNNY     72  38  29 NE3       30.09F
NEBRASKA CITY  SUNNY     69  31  24 NE6       30.07F
BEATRICE       SUNNY     71  44  38 N3        30.08F
FALLS CITY     SUNNY     73  41  31 NW9       30.05F

...NORTHERN KANSAS...

CITY           SKY/WX    TMP DP  RH WIND       PRES   REMARKS
GOODLAND       SUNNY     73  41  31 SE14      30.14F
HILL CITY      SUNNY     77  41  27 VRB5      30.10F
NORTON         CLEAR     75  32  20 SE7       30.09F
PHILLIPSBURG   SUNNY     79  45  29 E7        30.10F
BELOIT         SUNNY     75  46  35 NE3       30.07F
HAYS           SUNNY     75  48  38 E6        30.09F
RUSSELL        SUNNY     77  49  37 NE6       30.08F
CONCORDIA      SUNNY     75  46  35 NE8       30.08F
SALINA         SUNNY     76  49  38 NE6       30.07F
TOPEKA         SUNNY     74  50  42 NE5       30.05F



USA.gov is the U.S. government's official web portal to all federal, state and local government web resources and services.